User: anonymous   Login
Location: Cranbrook Institute of Science
(42.5830°N, 83.2450°W)
Time: 04:37:19
(UTC-04:00)
Language:

ATLAS 5 CENTAUR R/B - Orbit

View from above orbital plane
View from above orbital plane
View from above satellite
View from above satellite

Ground track
Ground track

The orbit data is extracted from the following two-line orbital elements,

1 31702U 07027B   15207.09742391 0.00000200  00000-0  80163-4 0    06
2 31702  63.3740  78.2943 0194000 355.2785   4.7215 14.18384964    07
Epoch (UTC): 26 July 2015 02:20:17
Eccentricity: 0.0194000
inclination: 63.3740°
perigee height: 691 km
apogee height: 970 km
right ascension of ascending node: 78.2943°
argument of perigee: 355.2785°
revolutions per day: 14.18384964
mean anomaly at epoch: 4.7215°
orbit number at epoch: 0

The dashed part of the orbit path shows where the satellite is in the earth's shadow,  

DLR